User: anonymous   Login
Location: Catstown
(52.4386°N, 7.2633°W)
Time: 12:36:45
(UTC+00:00)
Language:

Cosmos 1437 - Orbit

View from above orbital plane
View from above orbital plane
View from above satellite
View from above satellite

Ground track
Ground track

The orbit data is extracted from the following two-line orbital elements,

1 13770U 83003A   20330.87406948 +.00019110 +00000-0 +17201-3 0  9992
2 13770 081.1588 026.4809 0003339 087.6849 272.4790 15.68049684082192
Epoch (UTC): 25 November 2020 20:58:39
Eccentricity: 0.0003339
inclination: 81.1588°
perigee height: 362 km
apogee height: 367 km
right ascension of ascending node: 26.4809°
argument of perigee: 87.6849°
revolutions per day: 15.68049684
mean anomaly at epoch: 272.4790°
orbit number at epoch: 8219

The dashed part of the orbit path shows where the satellite is in the earth's shadow,  

DLR